Regional Weather Roundup
Issued by NWS

Home | Current Version | Previous Version | Graphics & Text | Print | Product List | Glossary On
Versions: 1 2 3 4 5 6 7 8 9 10 11 12 13 14 15 16 17 18 19 20 21 22 23 24 25 26 27 28 29 30 31 32 33 34 35 36 37 38 39 40 41 42 43 44 45 46 47 48 49 50
000
ASUS43 KLOT 041508
RWRIL

ILLINOIS REGIONAL WEATHER ROUNDUP
NATIONAL WEATHER SERVICE CHICAGO/ROMEOVILLE IL
1000 AM CDT FRI SEP 04 2015

NOTE: "FAIR" INDICATES FEW OR NO CLOUDS BELOW 12,000 FEET WITH NO
SIGNIFICANT WEATHER AND/OR OBSTRUCTIONS TO VISIBILITY.

* THESE STATIONS ARE NOT UNDER NWS QUALITY CONTROL. THEY ALSO MAY NOT
  REPORT WEATHER SUCH AS PRECIPITATION OR FOG.

ILZ001-002-007-009-015-016-024-041600-
NORTHWEST ILLINOIS

CITY           SKY/WX    TMP DP  RH WIND       PRES   REMARKS
MOLINE         SUNNY     84  70  62 CALM      30.01R HX  88
STERLING*      SUNNY    N/A N/A N/A CALM      30.00R
SAVANNA*       MOSUNNY   78  68  72 CALM      30.02R
$$

ILZ003-004-008-010-011-017-018-041600-
NORTH CENTRAL ILLINOIS

CITY           SKY/WX    TMP DP  RH WIND       PRES   REMARKS
ROCKFORD       MOSUNNY   77  68  73 SE8       30.05R
FREEPORT*      SUNNY     75  69  80 E3        30.05R
ROCHELLE*      SUNNY     76  69  80 E6        30.04R
DE KALB*       SUNNY     77  69  75 E5        30.05R
PERU*          PTSUNNY   78  69  72 CALM      30.03R HX  80
$$

ILZ005-006-012>014-019>023-041600-
NORTHEAST ILLINOIS

CITY           SKY/WX    TMP DP  RH WIND       PRES   REMARKS
CHICAGO-OHARE  PTSUNNY   75  66  73 VRB6      30.03R
CHICAGO-MIDWAY MOSUNNY   78  67  68 E6        30.03R HX  80
AURORA         SUNNY     79  69  71 SE3       30.04R HX  81
LANSING*       SUNNY     77  69  74 N3        30.03R
JOLIET*        SUNNY     80  70  73 SE3       30.03R HX  82
WAUKEGAN       CLOUDY    67  65  93 N6        30.05R
DUPAGE AIRPORT PTSUNNY   76  67  73 VRB3      30.03R
KANKAKEE*      SUNNY     79  71  75 SE3       30.03R HX  82
WHEELING       CLOUDY    71  66  84 NE5       30.06R
MORRIS*        MOSUNNY   77  70  79 E5        30.02R
ROMEOVILLE*    PTSUNNY   78  67  68 E3        30.03R HX  80
NORTHERLY ISL    N/A     72  67  84 MISG        N/A
$$

LMZ740>746-041600-
SOUTHERN LAKE MICHIGAN

STATION/POSITION SKY/WX   TEMP    WIND        PRES    VSBY  WAVE
                          AIR SEA DIR/SP/G                  HT/PER
                          (F)     (DEG/KT/KT) (MB)    (MI)  (FT/S)
SOUTHERN BUOY              66     300/  6       N/A
WILMETTE HARBOR            67 70  150/  6/  8   N/A           1/ 4
HARRISON CRIB              70      10/  4/  5   N/A
BURNHAM HARBOR             73      50/  4/  5   N/A
CALUMET HARBOR             72      30/  3/  5   N/A
BURNS HARBOR               75      50/  2/  3 1016.9S
MICHIGAN CITY              71      10/  2/  3   N/A
MICHIGAN CITY 6N           72 74   20/  2/  4   N/A           1/ 4
ST. JOSEPH                 72 74  360/  2/  4   N/A           1/ 4
$$

ILZ025>027-034>036-040-047-049-050-058-095>099-041600-
WEST-CENTRAL ILLINOIS

CITY           SKY/WX    TMP DP  RH WIND       PRES   REMARKS
QUINCY         SUNNY     83  70  64 W7        30.03R HX  87
GALESBURG*     SUNNY     82  71  69 CALM      30.03R HX  87
MACOMB*        SUNNY     84  71  64 SW3       30.04S HX  88
JACKSONVILLE*  SUNNY     87  71  57 SW6       30.04R HX  93
PITTSFIELD*    SUNNY     86  69  55 SW7       30.05R HX  90
$$

ILZ028>032-037-038-041>044-048-051>054-059>061-041600-
CENTRAL ILLINOIS

CITY           SKY/WX    TMP DP  RH WIND       PRES   REMARKS
PONTIAC        CLOUDY    83  74  73 SW3       30.03R HX  90
BLOOMINGTON    MOSUNNY   84  72  67 W5        30.05R HX  89
DECATUR        SUNNY     86  70  58 W5        30.04R HX  90
PEORIA         SUNNY     86  70  58 NW3       30.03R HX  90
LACON*         SUNNY     82  70  68 CALM      30.01R HX  85
LINCOLN*       MOSUNNY   85  70  60 CALM      30.02R HX  90
SPRINGFIELD    SUNNY     87  71  58 W5        30.03R HX  93
TAYLORVILLE    SUNNY     84  70  61 SW5       30.04R HX  88
$$

ILZ033-039-045-046-055>057-062-063-041600-
EAST-CENTRAL ILLINOIS

CITY           SKY/WX    TMP DP  RH WIND       PRES   REMARKS
CHAMPAIGN      SUNNY     85  69  58 CALM      30.04S HX  89
RANTOUL*       SUNNY     84  72  66 W6        30.04R HX  90
PARIS*         SUNNY     84  71  65 CALM      30.05S HX  89
$$

ILZ079-100>102-041600-
SOUTHWEST ILLINOIS

CITY           SKY/WX    TMP DP  RH WIND       PRES   REMARKS
BELLEVILLE     SUNNY     84  75  74 VRB1      30.03R HX  91
CAHOKIA*       SUNNY     85  70  60 CALM      30.04R HX  89
SPARTA*        SUNNY     83  72  69 CALM      30.06R HX  88
$$

ILZ064>066-069>071-074>076-080>082-084>086-088>090-092>094-041600-
SOUTH-CENTRAL ILLINOIS

CITY           SKY/WX    TMP DP  RH WIND       PRES   REMARKS
CARBONDALE     SUNNY     84  70  62 W3        30.04S HX  88
CAIRO*         SUNNY     82  76  81 CALM      30.05R HX  89
EFFINGHAM*     SUNNY     84  67  56 CALM      30.06R HX  87
MARION         MOSUNNY   86  72  62 SW6       30.06R HX  92
MT. VERNON     SUNNY     84  70  61 S3        30.06R HX  88
CENTRALIA*     SUNNY     85  73  67 CALM      30.04R HX  91
SALEM*         SUNNY     86  71  60 W3        30.05R HX  90
METROPOLIS*    SUNNY     84  75  73 SE3       30.05S HX  92
$$

ILZ067-068-072-073-078-083-087-091-041600-
SOUTHEAST ILLINOIS

CITY           SKY/WX    TMP DP  RH WIND       PRES   REMARKS
LAWRENCEVILLE  SUNNY     85  68  56 NW3       30.05R HX  88
FLORA*         SUNNY     85  68  58 SW5       30.05R HX  88
FAIRFIELD*     SUNNY     85  72  65 SW3       30.04R HX  90
HARRISBURG*    SUNNY     85  70  59 CALM      30.05R HX  90
ROBINSON*      SUNNY     85  70  60 CALM      30.05S HX  89
CARMI*         SUNNY     84  73  70 CALM      30.04S HX  90
$$

ABBREVIATIONS USED IN REMARKS
   TC - TEMPERATURE IN CELSIUS
  WCI - WIND CHILL INDEX
   HX - HEAT INDEX
  VSB - VISIBILITY
$$



USA.gov is the U.S. government's official web portal to all federal, state and local government web resources and services.